STARLINK-34043, 63823

Orbit data source: Space-Track

STARLINK-34043, 63823 is a payload satellite owned by SpaceX/Seattle (US) in LEO that was launched on Sun, 04 May 2025 UTC via an FALCON 9 launch vehicle from the Air Force Eastern Test Range (AFETR). Payload-class satellites include a variety of spacecraft equipped with specific instruments for various scientific and technological missions. These include communications satellites like Starlink; space stations such as the ISS; scientific satellites like the Hubble; Earth observation satellites from companies like Planet Labs, Umbra, and HawkEye 360; GPS; miniature CubeSats for education and research; and military/defense satellites.

Loading next visibility...
Identifier
63823, 2025-092V
Orbit
LEO
Country
Flag of USUS
Related business
Manufacturer
SpaceX/Seattle
Mission
Operational Commercial Communications
Bus & Motor
STARLINK V2MO, Unknown motor
Mass
575 kg wet, ~530 kg dry
Launch date (UTC)
2025-05-04 (1 year ago)
Launch vehicle
FALCON 9
Launch site
Air Force Eastern Test Range (AFETR)
Object type
Payload
Rocket body
Debris
Shape & HBR
Box + 2 Pan, 17.7 m
Radar Cross Section
36.964 m², Large (>1 m²)

Expand to show TLE details & history
Last TLE update: 7 hours ago

TLE from 7 hours ago
0 STARLINK-34043
1 63823U 25092V   26120.03478088  .00035167  00000-0  12807-2 0  9991
2 63823  42.9992 238.5245 0003889 266.8078  93.2328 15.27591140 56512
Epoch: 2026-04-30T00:50Z
TLE epoch observation values (Epoch: 2026-04-30T00:50:05.068Z)
Latitude
-0.00005°
Longitude
8.01616°
Altitude
482.943 km
Speed
7.626 km/s
True Right ascension
15h 54m 05s
True Declination
0° 00' 00"
Sunlit
Object was in full shadow at epoch
Visualization orbit readout
Latitude
Unknown
Longitude
Unknown
Altitude
Unknown
Speed
Unknown
Apparent Right ascension
Unknown
Apparent Declination
Unknown
Sunlit
N/A
Visualization observer readout
Local Sidereal Time
15:52:27
Azimuth
Unknown
Elevation
Unknown
Doppler factor
Unknown
Orbital elements
Apogee altitude
487.63 km
Perigee altitude
482.292 km
Semi-major axis
6,863.098 km
Eccentricity
0.00039
Inclination
42.9992°
RAAN
238.5245°
Arg. of periapsis
266.8078°
True anomaly
93.27729°
Mean anomaly
93.2328°
Eccentric anomaly
93.25505°
Mean motion
3.81736 °/min
Orbital period
94.31 mins
BSTAR
0.0012807
Loading maneuver chart data...
Computing Atmospheric mass density...
Loading historical data...
Loading historical data...
Loading historical data...
Loading historical data...
Loading historical data...
Loading historical data...
Loading historical data...

Documentation

Showing up to 5 results
|